Time,TemperatureF,DewpointF,PressureIn,WindDirection,WindDirectionDegrees,WindSpeedMPH,WindSpeedGustMPH,Humidity,HourlyPrecipIn,Conditions,Clouds,dailyrainin,SoftwareType,DateUTC
2013-10-03 00:00:00,47.3,43.3,30.15,SE,135,0.0,0.0,86,0.00,,,0.22,Customized_open2300,2013-10-03 07:00:00,
2013-10-03 00:10:00,47.3,43.3,30.16,SE,135,0.0,0.0,86,0.00,,,0.22,Customized_open2300,2013-10-03 07:10:00,
2013-10-03 00:15:00,47.3,43.3,30.16,SE,135,0.0,0.0,86,0.00,,,0.22,Customized_open2300,2013-10-03 07:15:00,
2013-10-03 00:20:00,47.1,43.2,30.16,SE,135,0.0,0.0,86,0.00,,,0.22,Customized_open2300,2013-10-03 07:20:00,
2013-10-03 00:25:00,47.1,43.2,30.16,SE,135,0.0,0.0,86,0.00,,,0.22,Customized_open2300,2013-10-03 07:25:00,
2013-10-03 00:30:00,47.1,43.2,30.16,SE,135,0.0,0.0,86,0.00,,,0.22,Customized_open2300,2013-10-03 07:30:00,
2013-10-03 00:35:00,47.1,43.2,30.17,SE,135,0.0,0.0,86,0.00,,,0.22,Customized_open2300,2013-10-03 07:35:00,
2013-10-03 00:40:00,46.9,43.0,30.17,SE,135,0.0,0.0,86,0.00,,,0.22,Customized_open2300,2013-10-03 07:40:00,
2013-10-03 00:50:00,46.9,43.0,30.17,SE,135,0.0,0.0,86,0.00,,,0.22,Customized_open2300,2013-10-03 07:50:00,
2013-10-03 00:55:00,46.8,42.8,30.18,SE,135,0.0,0.0,86,0.00,,,0.22,Customized_open2300,2013-10-03 07:55:00,
2013-10-03 01:01:00,46.6,42.6,30.17,SE,135,0.0,0.0,86,0.00,,,0.22,Customized_open2300,2013-10-03 08:01:00,
2013-10-03 01:10:00,46.4,42.5,30.17,SE,135,0.0,0.0,86,0.00,,,0.22,Customized_open2300,2013-10-03 08:10:00,
2013-10-03 01:20:00,46.2,42.3,30.17,SE,135,0.0,0.0,86,0.00,,,0.22,Customized_open2300,2013-10-03 08:20:00,
2013-10-03 01:25:00,46.2,42.3,30.17,SE,135,0.0,0.0,86,0.00,,,0.22,Customized_open2300,2013-10-03 08:25:00,
2013-10-03 01:35:00,46.0,42.1,30.18,SE,135,0.0,0.0,86,0.00,,,0.22,Customized_open2300,2013-10-03 08:35:00,
2013-10-03 01:40:00,45.7,41.8,30.18,SE,135,0.0,0.0,86,0.00,,,0.22,Customized_open2300,2013-10-03 08:40:00,
2013-10-03 01:45:00,45.7,41.8,30.18,SE,135,0.0,0.0,86,0.00,,,0.22,Customized_open2300,2013-10-03 08:45:00,
2013-10-03 01:55:00,45.3,41.4,30.19,SE,135,0.0,0.0,86,0.00,,,0.22,Customized_open2300,2013-10-03 08:55:00,
2013-10-03 02:01:00,45.1,41.2,30.19,SE,135,0.0,0.0,86,0.00,,,0.22,Customized_open2300,2013-10-03 09:01:00,
2013-10-03 02:10:00,45.1,41.2,30.19,SE,135,0.0,0.0,86,0.00,,,0.22,Customized_open2300,2013-10-03 09:10:00,
2013-10-03 02:15:00,45.1,41.2,30.20,SE,135,0.0,0.0,86,0.00,,,0.22,Customized_open2300,2013-10-03 09:15:00,
2013-10-03 02:25:00,45.0,41.0,30.20,SE,135,0.0,0.0,86,0.00,,,0.22,Customized_open2300,2013-10-03 09:25:00,
2013-10-03 02:35:00,44.8,40.9,30.20,SE,135,0.0,0.0,86,0.00,,,0.22,Customized_open2300,2013-10-03 09:35:00,
2013-10-03 02:45:00,44.4,40.5,30.19,SE,135,0.0,0.0,86,0.00,,,0.22,Customized_open2300,2013-10-03 09:45:00,
2013-10-03 02:50:00,44.4,40.5,30.20,SE,135,0.0,0.0,86,0.00,,,0.22,Customized_open2300,2013-10-03 09:50:00,
2013-10-03 02:55:00,44.4,40.5,30.20,SE,135,0.0,0.0,86,0.00,,,0.22,Customized_open2300,2013-10-03 09:55:00,
2013-10-03 03:01:00,44.2,40.3,30.20,SE,135,0.0,0.0,86,0.00,,,0.22,Customized_open2300,2013-10-03 10:01:00,
2013-10-03 03:10:00,44.2,40.3,30.20,SE,135,0.0,0.0,86,0.00,,,0.22,Customized_open2300,2013-10-03 10:10:00,
2013-10-03 03:15:00,44.1,40.1,30.20,SE,135,0.0,0.0,86,0.00,,,0.22,Customized_open2300,2013-10-03 10:15:00,
2013-10-03 03:20:00,44.1,40.1,30.20,SE,135,0.0,0.0,86,0.00,,,0.22,Customized_open2300,2013-10-03 10:20:00,
2013-10-03 03:25:00,43.9,40.0,30.21,SE,135,0.0,0.0,86,0.00,,,0.22,Customized_open2300,2013-10-03 10:25:00,
2013-10-03 03:30:00,43.9,40.0,30.21,SE,135,0.0,0.0,86,0.00,,,0.22,Customized_open2300,2013-10-03 10:30:00,
2013-10-03 03:40:00,44.1,40.4,30.21,SE,135,0.0,0.0,87,0.00,,,0.22,Customized_open2300,2013-10-03 10:40:00,
2013-10-03 03:50:00,44.1,40.4,30.21,SE,135,0.0,0.0,87,0.00,,,0.22,Customized_open2300,2013-10-03 10:50:00,
2013-10-03 03:55:00,44.1,40.4,30.22,SE,135,0.0,0.0,87,0.00,,,0.22,Customized_open2300,2013-10-03 10:55:00,
2013-10-03 04:01:00,43.9,40.3,30.22,SE,135,0.0,0.0,87,0.00,,,0.22,Customized_open2300,2013-10-03 11:01:00,
2013-10-03 04:10:00,43.9,40.3,30.23,SE,135,0.0,0.0,87,0.00,,,0.22,Customized_open2300,2013-10-03 11:10:00,
2013-10-03 04:20:00,43.9,40.3,30.23,SE,135,0.0,0.0,87,0.00,,,0.22,Customized_open2300,2013-10-03 11:20:00,
2013-10-03 04:25:00,43.9,40.3,30.24,SE,135,0.0,0.0,87,0.00,,,0.22,Customized_open2300,2013-10-03 11:25:00,
2013-10-03 04:30:00,43.9,40.3,30.23,SE,135,0.0,0.0,87,0.00,,,0.22,Customized_open2300,2013-10-03 11:30:00,
2013-10-03 04:35:00,43.9,40.3,30.23,SE,135,0.0,0.0,87,0.00,,,0.22,Customized_open2300,2013-10-03 11:35:00,
2013-10-03 04:40:00,43.9,40.3,30.24,SE,135,0.0,0.0,87,0.00,,,0.22,Customized_open2300,2013-10-03 11:40:00,
2013-10-03 04:50:00,43.7,40.1,30.24,SE,135,0.0,0.0,87,0.00,,,0.22,Customized_open2300,2013-10-03 11:50:00,
2013-10-03 04:55:00,43.5,39.9,30.25,SE,135,0.0,0.0,87,0.00,,,0.22,Customized_open2300,2013-10-03 11:55:00,
2013-10-03 05:01:00,43.5,39.9,30.24,SE,135,0.0,0.0,87,0.00,,,0.22,Customized_open2300,2013-10-03 12:01:00,
2013-10-03 05:10:00,43.3,39.7,30.25,SE,135,0.0,0.0,87,0.00,,,0.22,Customized_open2300,2013-10-03 12:10:00,
2013-10-03 05:15:00,43.3,39.7,30.25,SE,135,0.0,0.0,87,0.00,,,0.22,Customized_open2300,2013-10-03 12:15:00,
2013-10-03 05:20:00,43.3,39.7,30.25,SE,135,0.0,0.0,87,0.00,,,0.22,Customized_open2300,2013-10-03 12:20:00,
2013-10-03 05:25:00,43.2,39.5,30.25,SE,135,0.0,0.0,87,0.00,,,0.22,Customized_open2300,2013-10-03 12:25:00,
2013-10-03 05:30:00,43.0,39.4,30.25,SE,135,0.0,0.0,87,0.00,,,0.22,Customized_open2300,2013-10-03 12:30:00,
2013-10-03 05:40:00,42.6,39.0,30.26,SE,135,0.0,0.0,87,0.00,,,0.22,Customized_open2300,2013-10-03 12:40:00,
2013-10-03 05:45:00,42.6,39.0,30.26,SE,135,0.0,0.0,87,0.00,,,0.22,Customized_open2300,2013-10-03 12:45:00,
2013-10-03 05:55:00,42.4,38.8,30.26,SE,135,0.0,0.0,87,0.00,,,0.22,Customized_open2300,2013-10-03 12:55:00,
2013-10-03 06:01:00,42.4,38.8,30.26,SE,135,0.0,0.0,86,0.00,,,0.22,Customized_open2300,2013-10-03 13:01:00,
2013-10-03 06:10:00,42.3,38.3,30.26,SE,135,0.0,0.0,86,0.00,,,0.22,Customized_open2300,2013-10-03 13:10:00,
2013-10-03 06:15:00,42.1,38.2,30.26,SE,135,0.0,0.0,86,0.00,,,0.22,Customized_open2300,2013-10-03 13:15:00,
2013-10-03 06:20:00,42.1,38.2,30.26,SE,135,0.0,0.0,86,0.00,,,0.22,Customized_open2300,2013-10-03 13:20:00,
2013-10-03 06:25:00,42.1,38.2,30.27,SE,135,0.0,0.0,86,0.00,,,0.22,Customized_open2300,2013-10-03 13:25:00,
2013-10-03 06:35:00,42.1,38.2,30.27,SE,135,0.0,0.0,86,0.00,,,0.22,Customized_open2300,2013-10-03 13:35:00,
2013-10-03 06:40:00,42.1,38.2,30.27,SE,135,0.0,0.0,86,0.00,,,0.22,Customized_open2300,2013-10-03 13:40:00,
2013-10-03 06:50:00,41.9,38.0,30.28,SE,135,0.0,0.0,86,0.00,,,0.22,Customized_open2300,2013-10-03 13:50:00,
2013-10-03 06:55:00,41.7,37.8,30.27,SE,135,0.0,0.0,86,0.00,,,0.22,Customized_open2300,2013-10-03 13:55:00,
2013-10-03 07:01:00,41.5,37.6,30.27,SE,135,0.0,0.0,86,0.00,,,0.22,Customized_open2300,2013-10-03 14:01:00,
2013-10-03 07:10:00,41.5,37.6,30.28,SE,135,0.0,0.0,86,0.00,,,0.22,Customized_open2300,2013-10-03 14:10:00,
2013-10-03 07:15:00,41.5,37.6,30.28,SE,135,0.0,0.0,86,0.00,,,0.22,Customized_open2300,2013-10-03 14:15:00,
2013-10-03 07:25:00,41.2,37.3,30.28,SE,135,0.0,0.0,86,0.00,,,0.22,Customized_open2300,2013-10-03 14:25:00,
2013-10-03 07:35:00,41.0,37.1,30.28,SE,135,0.0,0.0,86,0.00,,,0.22,Customized_open2300,2013-10-03 14:35:00,
2013-10-03 07:40:00,41.0,37.1,30.29,SE,135,0.0,0.0,86,0.00,,,0.22,Customized_open2300,2013-10-03 14:40:00,
2013-10-03 07:45:00,41.0,37.1,30.29,SE,135,0.0,0.0,86,0.00,,,0.22,Customized_open2300,2013-10-03 14:45:00,
2013-10-03 07:50:00,41.0,37.1,30.29,SE,135,0.0,0.0,86,0.00,,,0.22,Customized_open2300,2013-10-03 14:50:00,
2013-10-03 08:00:00,41.0,37.1,30.30,SE,135,0.0,0.0,86,0.00,,,0.22,Customized_open2300,2013-10-03 15:00:00,
2013-10-03 08:05:00,41.0,37.1,30.29,SE,135,0.0,0.0,86,0.00,,,0.22,Customized_open2300,2013-10-03 15:05:00,
2013-10-03 08:10:00,41.2,37.3,30.30,SE,135,0.0,0.0,86,0.00,,,0.22,Customized_open2300,2013-10-03 15:10:00,
2013-10-03 08:20:00,41.4,37.7,30.31,SE,135,0.0,0.0,87,0.00,,,0.22,Customized_open2300,2013-10-03 15:20:00,
2013-10-03 08:25:00,41.5,37.9,30.31,SE,135,0.0,0.0,87,0.00,,,0.22,Customized_open2300,2013-10-03 15:25:00,
2013-10-03 08:30:00,41.5,37.9,30.31,SE,135,0.0,0.0,87,0.00,,,0.22,Customized_open2300,2013-10-03 15:30:00,
2013-10-03 08:35:00,41.7,38.1,30.32,SE,135,0.0,0.0,87,0.00,,,0.22,Customized_open2300,2013-10-03 15:35:00,
2013-10-03 08:40:00,41.7,38.1,30.32,SE,135,0.0,0.0,87,0.00,,,0.22,Customized_open2300,2013-10-03 15:40:00,
2013-10-03 08:45:00,41.9,38.3,30.32,SE,135,0.0,0.0,87,0.00,,,0.22,Customized_open2300,2013-10-03 15:45:00,
2013-10-03 08:50:00,42.1,38.5,30.33,SE,135,0.0,0.0,87,0.00,,,0.22,Customized_open2300,2013-10-03 15:50:00,
2013-10-03 09:00:00,42.1,38.5,30.33,SE,135,0.0,0.0,87,0.00,,,0.22,Customized_open2300,2013-10-03 16:00:00,
2013-10-03 09:10:00,42.4,39.1,30.33,SE,135,0.0,0.0,88,0.00,,,0.22,Customized_open2300,2013-10-03 16:10:00,
2013-10-03 09:15:00,42.4,39.1,30.33,SE,135,0.0,0.0,88,0.00,,,0.22,Customized_open2300,2013-10-03 16:15:00,
2013-10-03 09:20:00,42.4,39.1,30.33,SE,135,0.0,0.0,88,0.00,,,0.22,Customized_open2300,2013-10-03 16:20:00,
2013-10-03 09:25:00,42.6,39.6,30.33,SE,135,0.0,0.0,89,0.00,,,0.22,Customized_open2300,2013-10-03 16:25:00,
2013-10-03 09:30:00,42.6,39.6,30.33,SE,135,0.0,0.0,89,0.00,,,0.22,Customized_open2300,2013-10-03 16:30:00,
2013-10-03 09:35:00,42.8,39.8,30.33,SE,135,0.0,0.0,89,0.00,,,0.22,Customized_open2300,2013-10-03 16:35:00,
2013-10-03 09:45:00,43.0,40.0,30.34,SE,135,0.0,0.0,89,0.00,,,0.22,Customized_open2300,2013-10-03 16:45:00,
2013-10-03 09:50:00,43.2,40.2,30.34,SE,135,0.0,0.0,89,0.00,,,0.22,Customized_open2300,2013-10-03 16:50:00,
2013-10-03 10:00:00,43.5,40.5,30.34,SE,135,0.0,0.0,89,0.00,,,0.22,Customized_open2300,2013-10-03 17:00:00,
2013-10-03 10:05:00,43.7,40.7,30.34,SE,135,0.0,0.0,89,0.00,,,0.22,Customized_open2300,2013-10-03 17:05:00,
2013-10-03 10:15:00,44.2,41.5,30.35,SE,135,0.0,0.0,90,0.00,,,0.22,Customized_open2300,2013-10-03 17:15:00,
2013-10-03 10:20:00,44.4,41.7,30.35,SE,135,0.0,0.0,90,0.00,,,0.22,Customized_open2300,2013-10-03 17:20:00,
2013-10-03 10:30:00,45.0,42.3,30.35,SW,225,0.0,0.0,90,0.00,,,0.22,Customized_open2300,2013-10-03 17:30:00,
2013-10-03 10:35:00,45.1,42.4,30.36,SW,225,0.0,0.0,90,0.00,,,0.22,Customized_open2300,2013-10-03 17:35:00,
2013-10-03 10:40:00,45.5,42.8,30.35,SW,225,0.0,0.0,90,0.00,,,0.22,Customized_open2300,2013-10-03 17:40:00,
2013-10-03 10:45:00,45.7,43.0,30.35,NW,315,0.0,0.0,90,0.00,,,0.22,Customized_open2300,2013-10-03 17:45:00,
2013-10-03 10:50:00,45.7,43.0,30.36,NW,315,0.0,0.0,90,0.00,,,0.22,Customized_open2300,2013-10-03 17:50:00,
2013-10-03 11:00:00,46.2,43.5,30.36,NW,315,0.0,0.0,90,0.00,,,0.22,Customized_open2300,2013-10-03 18:00:00,
2013-10-03 11:05:00,46.2,43.5,30.36,NW,315,0.0,0.0,90,0.00,,,0.22,Customized_open2300,2013-10-03 18:05:00,
2013-10-03 11:15:00,46.8,44.3,30.35,NW,315,0.0,0.0,91,0.00,,,0.22,Customized_open2300,2013-10-03 18:15:00,
2013-10-03 11:25:00,47.3,44.9,30.35,NW,315,0.0,0.0,91,0.00,,,0.22,Customized_open2300,2013-10-03 18:25:00,
2013-10-03 11:35:00,47.7,45.0,30.36,NW,315,0.0,0.0,90,0.00,,,0.22,Customized_open2300,2013-10-03 18:35:00,
2013-10-03 11:45:00,48.0,45.3,30.35,NW,315,0.0,0.0,90,0.00,,,0.22,Customized_open2300,2013-10-03 18:45:00,
2013-10-03 11:50:00,48.0,45.3,30.36,NW,315,0.0,0.0,90,0.00,,,0.22,Customized_open2300,2013-10-03 18:50:00,
2013-10-03 12:00:00,48.6,45.8,30.36,NW,315,0.0,0.0,90,0.00,,,0.22,Customized_open2300,2013-10-03 19:00:00,
2013-10-03 12:05:00,48.7,46.0,30.36,NW,315,0.0,0.0,90,0.00,,,0.22,Customized_open2300,2013-10-03 19:05:00,
2013-10-03 12:15:00,49.8,47.0,30.36,West,270,0.0,0.0,90,0.00,,,0.22,Customized_open2300,2013-10-03 19:15:00,
2013-10-03 12:20:00,49.8,47.0,30.35,West,270,0.0,0.0,90,0.00,,,0.22,Customized_open2300,2013-10-03 19:20:00,
2013-10-03 12:30:00,49.8,46.6,30.35,West,270,0.0,0.0,89,0.00,,,0.22,Customized_open2300,2013-10-03 19:30:00,
2013-10-03 12:35:00,50.2,47.0,30.36,West,270,0.0,0.0,89,0.00,,,0.22,Customized_open2300,2013-10-03 19:35:00,
2013-10-03 12:45:00,50.7,47.2,30.36,West,270,0.0,0.0,88,0.00,,,0.22,Customized_open2300,2013-10-03 19:45:00,
2013-10-03 12:50:00,50.9,47.4,30.36,West,270,0.0,0.0,88,0.00,,,0.22,Customized_open2300,2013-10-03 19:50:00,
2013-10-03 12:55:00,51.3,47.5,30.35,West,270,0.0,0.0,87,0.00,,,0.22,Customized_open2300,2013-10-03 19:55:00,
2013-10-03 13:00:00,51.3,47.5,30.36,West,270,0.0,0.0,87,0.00,,,0.22,Customized_open2300,2013-10-03 20:00:00,
2013-10-03 13:05:00,51.4,47.6,30.35,NW,315,0.0,0.0,87,0.00,,,0.22,Customized_open2300,2013-10-03 20:05:00,
2013-10-03 13:10:00,51.8,48.0,30.35,NNE,22,0.0,0.0,87,0.00,,,0.22,Customized_open2300,2013-10-03 20:10:00,
2013-10-03 13:15:00,52.0,48.2,30.35,North,0,0.0,0.0,87,0.00,,,0.22,Customized_open2300,2013-10-03 20:15:00,
2013-10-03 13:20:00,52.3,48.5,30.35,NE,45,0.0,0.0,87,0.00,,,0.22,Customized_open2300,2013-10-03 20:20:00,
2013-10-03 13:25:00,52.9,49.1,30.35,North,0,0.0,0.0,87,0.00,,,0.22,Customized_open2300,2013-10-03 20:25:00,
2013-10-03 13:35:00,53.2,48.8,30.35,North,0,0.0,0.0,85,0.00,,,0.22,Customized_open2300,2013-10-03 20:35:00,
2013-10-03 13:40:00,53.2,48.5,30.35,North,0,0.0,0.0,84,0.00,,,0.22,Customized_open2300,2013-10-03 20:40:00,
2013-10-03 13:45:00,53.2,48.2,30.35,North,0,0.0,0.0,83,0.00,,,0.22,Customized_open2300,2013-10-03 20:45:00,
2013-10-03 13:55:00,53.2,48.2,30.35,NE,45,0.0,0.0,83,0.00,,,0.22,Customized_open2300,2013-10-03 20:55:00,
2013-10-03 14:05:00,53.2,47.9,30.35,NNE,22,0.0,0.0,82,0.00,,,0.22,Customized_open2300,2013-10-03 21:05:00,
2013-10-03 14:10:00,53.2,47.9,30.35,North,0,0.0,0.0,82,0.00,,,0.22,Customized_open2300,2013-10-03 21:10:00,
2013-10-03 14:15:00,53.2,47.9,30.35,SSW,202,0.0,0.0,82,0.00,,,0.22,Customized_open2300,2013-10-03 21:15:00,
2013-10-03 14:20:00,53.4,48.1,30.35,NNW,337,0.0,0.0,82,0.00,,,0.22,Customized_open2300,2013-10-03 21:20:00,
2013-10-03 14:30:00,54.1,48.1,30.35,WSW,247,0.0,0.0,80,0.00,,,0.22,Customized_open2300,2013-10-03 21:30:00,
2013-10-03 14:35:00,54.3,48.3,30.35,WSW,247,0.0,0.0,80,0.00,,,0.22,Customized_open2300,2013-10-03 21:35:00,
2013-10-03 14:40:00,54.7,48.9,30.35,WSW,247,0.0,0.0,81,0.00,,,0.22,Customized_open2300,2013-10-03 21:40:00,
2013-10-03 14:50:00,55.2,48.1,30.35,WSW,247,0.0,0.0,77,0.00,,,0.22,Customized_open2300,2013-10-03 21:50:00,
2013-10-03 14:55:00,55.4,48.6,30.35,NW,315,0.0,0.0,78,0.00,,,0.22,Customized_open2300,2013-10-03 21:55:00,
2013-10-03 15:05:00,55.2,47.7,30.35,WSW,247,0.0,0.0,76,0.00,,,0.22,Customized_open2300,2013-10-03 22:05:00,
2013-10-03 15:15:00,55.6,47.7,30.35,WSW,247,0.0,0.0,75,0.00,,,0.22,Customized_open2300,2013-10-03 22:15:00,
2013-10-03 15:20:00,55.6,48.1,30.35,WSW,247,0.0,0.0,76,0.00,,,0.22,Customized_open2300,2013-10-03 22:20:00,
2013-10-03 15:25:00,55.9,48.1,30.35,NNW,337,0.0,0.0,75,0.00,,,0.22,Customized_open2300,2013-10-03 22:25:00,
2013-10-03 15:35:00,55.9,48.4,30.35,NE,45,0.0,0.0,76,0.00,,,0.22,Customized_open2300,2013-10-03 22:35:00,
2013-10-03 15:40:00,55.9,48.4,30.35,WSW,247,0.0,0.0,76,0.00,,,0.22,Customized_open2300,2013-10-03 22:40:00,
2013-10-03 15:45:00,55.9,48.1,30.34,NE,45,0.0,0.0,75,0.00,,,0.22,Customized_open2300,2013-10-03 22:45:00,
2013-10-03 15:50:00,55.9,48.1,30.35,NE,45,0.0,0.0,75,0.00,,,0.22,Customized_open2300,2013-10-03 22:50:00,
2013-10-03 15:55:00,55.9,48.1,30.35,NNE,22,0.0,0.0,75,0.00,,,0.22,Customized_open2300,2013-10-03 22:55:00,
2013-10-03 16:05:00,55.9,48.1,30.35,NE,45,0.0,0.0,75,0.00,,,0.22,Customized_open2300,2013-10-03 23:05:00,
2013-10-03 16:15:00,55.8,47.9,30.35,WSW,247,0.0,0.0,75,0.00,,,0.22,Customized_open2300,2013-10-03 23:15:00,
2013-10-03 16:20:00,55.6,47.7,30.35,WSW,247,0.0,0.0,75,0.00,,,0.22,Customized_open2300,2013-10-03 23:20:00,
2013-10-03 16:25:00,55.6,47.7,30.35,NE,45,0.0,0.0,75,0.00,,,0.22,Customized_open2300,2013-10-03 23:25:00,
2013-10-03 16:30:00,55.6,47.7,30.35,NE,45,0.0,0.0,75,0.00,,,0.22,Customized_open2300,2013-10-03 23:30:00,
2013-10-03 16:35:00,55.6,47.7,30.35,NE,45,0.0,0.0,75,0.00,,,0.22,Customized_open2300,2013-10-03 23:35:00,
2013-10-03 16:40:00,55.6,47.7,30.35,NE,45,0.0,0.0,75,0.00,,,0.22,Customized_open2300,2013-10-03 23:40:00,
2013-10-03 16:45:00,55.4,47.6,30.35,NE,45,0.0,0.0,75,0.00,,,0.22,Customized_open2300,2013-10-03 23:45:00,
2013-10-03 16:50:00,55.2,47.7,30.35,NE,45,0.0,0.0,76,0.00,,,0.22,Customized_open2300,2013-10-03 23:50:00,
2013-10-03 16:55:00,55.0,47.6,30.35,East,90,0.0,0.0,76,0.00,,,0.22,Customized_open2300,2013-10-03 23:55:00,
2013-10-03 17:05:00,55.0,47.2,30.36,ENE,67,0.0,0.0,75,0.00,,,0.14,Customized_open2300,2013-10-04 00:05:00,
2013-10-03 17:10:00,55.0,47.2,30.35,ENE,67,0.0,0.0,75,0.00,,,0.14,Customized_open2300,2013-10-04 00:10:00,
2013-10-03 17:15:00,55.0,47.2,30.35,ENE,67,0.0,0.0,75,0.00,,,0.14,Customized_open2300,2013-10-04 00:15:00,
2013-10-03 17:20:00,54.9,47.0,30.35,ENE,67,0.0,0.0,75,0.00,,,0.14,Customized_open2300,2013-10-04 00:20:00,
2013-10-03 17:25:00,54.9,47.0,30.35,ENE,67,0.0,0.0,75,0.00,,,0.14,Customized_open2300,2013-10-04 00:25:00,
2013-10-03 17:35:00,54.7,45.8,30.35,NE,45,0.0,0.0,72,0.00,,,0.14,Customized_open2300,2013-10-04 00:35:00,
2013-10-03 17:40:00,54.9,46.0,30.34,NE,45,0.0,0.0,72,0.00,,,0.14,Customized_open2300,2013-10-04 00:40:00,
2013-10-03 17:45:00,54.9,46.0,30.34,NE,45,0.0,0.0,72,0.00,,,0.14,Customized_open2300,2013-10-04 00:45:00,
2013-10-03 17:50:00,55.0,46.2,30.35,NE,45,0.0,0.0,72,0.00,,,0.14,Customized_open2300,2013-10-04 00:50:00,
2013-10-03 17:55:00,54.9,46.0,30.34,NE,45,0.0,0.0,72,0.00,,,0.14,Customized_open2300,2013-10-04 00:55:00,
2013-10-03 18:05:00,54.7,45.8,30.34,NE,45,0.0,0.0,72,0.00,,,0.00,Customized_open2300,2013-10-04 01:05:00,
2013-10-03 18:10:00,54.5,45.7,30.34,NE,45,0.0,0.0,72,0.00,,,0.00,Customized_open2300,2013-10-04 01:10:00,
2013-10-03 18:15:00,54.3,45.8,30.35,NE,45,0.0,0.0,73,0.00,,,0.00,Customized_open2300,2013-10-04 01:15:00,
2013-10-03 18:20:00,54.3,45.8,30.34,NE,45,0.0,0.0,73,0.00,,,0.00,Customized_open2300,2013-10-04 01:20:00,
2013-10-03 18:25:00,54.3,45.8,30.35,NE,45,0.0,0.0,73,0.00,,,0.00,Customized_open2300,2013-10-04 01:25:00,
2013-10-03 18:30:00,54.1,45.7,30.35,NE,45,0.0,0.0,73,0.00,,,0.00,Customized_open2300,2013-10-04 01:30:00,
2013-10-03 18:35:00,54.0,45.5,30.35,NE,45,0.0,0.0,73,0.00,,,0.00,Customized_open2300,2013-10-04 01:35:00,
2013-10-03 18:40:00,54.0,45.5,30.35,NE,45,0.0,0.0,73,0.00,,,0.00,Customized_open2300,2013-10-04 01:40:00,
2013-10-03 18:45:00,53.8,45.7,30.35,NE,45,0.0,0.0,74,0.00,,,0.00,Customized_open2300,2013-10-04 01:45:00,
2013-10-03 18:55:00,53.4,45.3,30.35,NE,45,0.0,0.0,74,0.00,,,0.00,Customized_open2300,2013-10-04 01:55:00,
2013-10-03 19:00:00,53.2,45.2,30.35,NE,45,0.0,0.0,74,0.00,,,0.00,Customized_open2300,2013-10-04 02:00:00,
2013-10-03 19:05:00,52.9,45.2,30.36,NE,45,0.0,0.0,75,0.00,,,0.00,Customized_open2300,2013-10-04 02:05:00,
2013-10-03 19:10:00,52.7,45.0,30.35,NE,45,0.0,0.0,75,0.00,,,0.00,Customized_open2300,2013-10-04 02:10:00,
2013-10-03 19:15:00,52.3,44.7,30.36,NE,45,0.0,0.0,75,0.00,,,0.00,Customized_open2300,2013-10-04 02:15:00,
2013-10-03 19:25:00,52.0,44.7,30.36,NE,45,0.0,0.0,76,0.00,,,0.00,Customized_open2300,2013-10-04 02:25:00,
2013-10-03 19:30:00,51.8,44.5,30.35,NE,45,0.0,0.0,76,0.00,,,0.00,Customized_open2300,2013-10-04 02:30:00,
2013-10-03 19:40:00,51.4,44.5,30.35,NE,45,0.0,0.0,77,0.00,,,0.00,Customized_open2300,2013-10-04 02:40:00,
2013-10-03 19:45:00,51.4,44.5,30.35,NE,45,0.0,0.0,77,0.00,,,0.00,Customized_open2300,2013-10-04 02:45:00,
2013-10-03 19:55:00,51.1,44.1,30.36,NE,45,0.0,0.0,77,0.00,,,0.00,Customized_open2300,2013-10-04 02:55:00,
2013-10-03 20:00:00,50.9,43.9,30.36,NE,45,0.0,0.0,77,0.00,,,0.00,Customized_open2300,2013-10-04 03:00:00,
2013-10-03 20:05:00,50.7,44.1,30.35,NE,45,0.0,0.0,78,0.00,,,0.00,Customized_open2300,2013-10-04 03:05:00,
2013-10-03 20:10:00,50.7,44.1,30.36,NE,45,0.0,0.0,78,0.00,,,0.00,Customized_open2300,2013-10-04 03:10:00,
2013-10-03 20:20:00,50.4,43.7,30.36,NE,45,0.0,0.0,78,0.00,,,0.00,Customized_open2300,2013-10-04 03:20:00,
2013-10-03 20:25:00,50.2,43.6,30.35,NE,45,0.0,0.0,78,0.00,,,0.00,Customized_open2300,2013-10-04 03:25:00,
2013-10-03 20:35:00,49.8,43.2,30.36,NE,45,0.0,0.0,78,0.00,,,0.00,Customized_open2300,2013-10-04 03:35:00,
2013-10-03 20:40:00,49.8,43.2,30.36,NE,45,0.0,0.0,78,0.00,,,0.00,Customized_open2300,2013-10-04 03:40:00,
2013-10-03 20:45:00,49.6,43.0,30.36,NE,45,0.0,0.0,78,0.00,,,0.00,Customized_open2300,2013-10-04 03:45:00,
2013-10-03 20:55:00,49.3,43.0,30.36,NE,45,0.0,0.0,79,0.00,,,0.00,Customized_open2300,2013-10-04 03:55:00,
2013-10-03 21:00:00,49.1,42.8,30.35,NE,45,0.0,0.0,79,0.00,,,0.00,Customized_open2300,2013-10-04 04:00:00,
2013-10-03 21:35:00,47.8,41.6,30.35,NE,45,0.0,0.0,79,0.00,,,0.00,Customized_open2300,2013-10-04 04:35:00,
2013-10-03 21:40:00,47.7,41.4,30.35,NE,45,0.0,0.0,79,0.00,,,0.00,Customized_open2300,2013-10-04 04:40:00,
2013-10-03 21:45:00,47.3,41.1,30.35,NE,45,0.0,0.0,79,0.00,,,0.00,Customized_open2300,2013-10-04 04:45:00,
2013-10-03 21:55:00,46.9,41.1,30.36,NE,45,0.0,0.0,80,0.00,,,0.00,Customized_open2300,2013-10-04 04:55:00,
2013-10-03 22:00:00,46.8,41.0,30.35,NE,45,0.0,0.0,80,0.00,,,0.00,Customized_open2300,2013-10-04 05:00:00,
2013-10-03 22:05:00,46.6,40.8,30.36,NE,45,0.0,0.0,80,0.00,,,0.00,Customized_open2300,2013-10-04 05:05:00,
2013-10-03 22:10:00,46.6,40.8,30.36,NE,45,0.0,0.0,80,0.00,,,0.00,Customized_open2300,2013-10-04 05:10:00,
2013-10-03 22:20:00,46.2,40.5,30.36,NE,45,0.0,0.0,80,0.00,,,0.00,Customized_open2300,2013-10-04 05:20:00,
2013-10-03 22:25:00,46.2,40.5,30.36,NE,45,0.0,0.0,80,0.00,,,0.00,Customized_open2300,2013-10-04 05:25:00,
2013-10-03 22:30:00,46.0,40.3,30.36,NE,45,0.0,0.0,80,0.00,,,0.00,Customized_open2300,2013-10-04 05:30:00,
2013-10-03 22:35:00,46.0,40.3,30.36,NE,45,0.0,0.0,80,0.00,,,0.00,Customized_open2300,2013-10-04 05:35:00,
2013-10-03 22:45:00,45.7,39.9,30.36,NE,45,0.0,0.0,80,0.00,,,0.00,Customized_open2300,2013-10-04 05:45:00,
2013-10-03 22:50:00,45.7,40.2,30.36,NE,45,0.0,0.0,81,0.00,,,0.00,Customized_open2300,2013-10-04 05:50:00,
2013-10-03 22:55:00,45.5,40.0,30.36,NE,45,0.0,0.0,81,0.00,,,0.00,Customized_open2300,2013-10-04 05:55:00,
2013-10-03 23:00:00,45.5,40.0,30.36,NE,45,0.0,0.0,81,0.00,,,0.00,Customized_open2300,2013-10-04 06:00:00,
2013-10-03 23:10:00,45.1,39.7,30.36,NE,45,0.0,0.0,81,0.00,,,0.00,Customized_open2300,2013-10-04 06:10:00,
2013-10-03 23:15:00,45.0,39.5,30.36,NE,45,0.0,0.0,81,0.00,,,0.00,Customized_open2300,2013-10-04 06:15:00,
2013-10-03 23:20:00,45.0,39.5,30.36,NE,45,0.0,0.0,81,0.00,,,0.00,Customized_open2300,2013-10-04 06:20:00,
2013-10-03 23:25:00,44.8,39.3,30.36,NE,45,0.0,0.0,81,0.00,,,0.00,Customized_open2300,2013-10-04 06:25:00,
2013-10-03 23:35:00,44.4,39.0,30.36,ESE,112,0.0,0.0,81,0.00,,,0.00,Customized_open2300,2013-10-04 06:35:00,
2013-10-03 23:45:00,43.9,38.4,30.37,East,90,0.0,0.0,81,0.00,,,0.00,Customized_open2300,2013-10-04 06:45:00,
2013-10-03 23:55:00,43.5,38.1,30.37,East,90,0.0,0.0,81,0.00,,,0.00,Customized_open2300,2013-10-04 06:55:00,